TAM3113 SBCY-SBBR

Flight info

Callsign TAM3113
Flight time N/A
Altitude 35000
Route TORAB UZ8 MABMA DCT UBSUS
Aircraft A321/M-SDE3FGHIRWY/LB1

Departure

Time 2026-04-23 21:29
Airport Várzea Grande–Marechal Rondon International Airport (SBCY)

Arrival

Time N/A
Airport Presidente Juscelino Kubitschek International Airport (SBBR)
Time Latitude Longitude Altitude Speed Heading
2026-04-23 21:20 -15.64889 -56.12067 605 ft 0 kts 243°
2026-04-23 21:21 -15.64887 -56.12062 605 ft 3 kts 243°
2026-04-23 21:21 -15.64878 -56.12044 621 ft 3 kts 243°
2026-04-23 21:22 -15.64868 -56.12027 612 ft 3 kts 186°
2026-04-23 21:22 -15.64860 -56.12027 611 ft 0 kts 158°
2026-04-23 21:24 -15.64863 -56.12026 605 ft 1 kts 158°
2026-04-23 21:24 -15.64876 -56.12020 619 ft 3 kts 158°
2026-04-23 21:24 -15.64897 -56.12010 613 ft 4 kts 154°
2026-04-23 21:25 -15.64927 -56.11994 612 ft 5 kts 153°
2026-04-23 21:25 -15.64962 -56.11976 609 ft 7 kts 153°
2026-04-23 21:25 -15.65008 -56.11952 612 ft 8 kts 153°
2026-04-23 21:25 -15.65063 -56.11923 614 ft 9 kts 153°
2026-04-23 21:26 -15.65077 -56.11870 605 ft 9 kts 66°
2026-04-23 21:26 -15.65035 -56.11817 607 ft 13 kts
2026-04-23 21:26 -15.64911 -56.11872 613 ft 26 kts 333°
2026-04-23 21:26 -15.64738 -56.11964 624 ft 27 kts 333°
2026-04-23 21:27 -15.64570 -56.12054 620 ft 27 kts 333°
2026-04-23 21:27 -15.64440 -56.12133 629 ft 13 kts 314°
2026-04-23 21:27 -15.64383 -56.12161 631 ft 5 kts 54°
2026-04-23 21:27 -15.64393 -56.12150 632 ft 2 kts 150°
2026-04-23 21:28 -15.64397 -56.12147 632 ft 1 kts 150°
2026-04-23 21:28 -15.64652 -56.12010 625 ft 80 kts 153°
2026-04-23 21:28 -15.65355 -56.11636 603 ft 144 kts 153°
2026-04-23 21:28 -15.66383 -56.11089 766 ft 178 kts 151°
2026-04-23 21:29 -15.67484 -56.10500 1373 ft 182 kts 149°
2026-04-23 21:29 -15.68268 -56.09403 1468 ft 206 kts 103°
2026-04-23 21:29 -15.68271 -56.07845 1590 ft 228 kts 86°
2026-04-23 21:29 -15.68119 -56.06120 1714 ft 252 kts 85°
2026-04-23 21:30 -15.67942 -56.04256 2146 ft 264 kts 85°
2026-04-23 21:30 -15.67769 -56.02346 2803 ft 267 kts 85°
2026-04-23 21:30 -15.67606 -56.00420 3485 ft 269 kts 86°
2026-04-23 21:30 -15.67447 -55.98485 4184 ft 270 kts 85°
2026-04-23 21:31 -15.67061 -55.96574 4896 ft 271 kts 76°
2026-04-23 21:31 -15.66581 -55.94681 5613 ft 272 kts 76°
2026-04-23 21:31 -15.66101 -55.92782 6335 ft 272 kts 76°
2026-04-23 21:31 -15.65618 -55.90876 6994 ft 274 kts 76°
2026-04-23 21:32 -15.65335 -55.88922 7612 ft 277 kts 91°
2026-04-23 21:32 -15.65682 -55.86956 8229 ft 280 kts 110°
2026-04-23 21:32 -15.66481 -55.85102 8855 ft 283 kts 114°
2026-04-23 21:32 -15.67303 -55.83237 9490 ft 285 kts 114°
2026-04-23 21:33 -15.68128 -55.81354 10060 ft 290 kts 114°
2026-04-23 21:33 -15.68976 -55.79406 10186 ft 310 kts 114°
2026-04-23 21:33 -15.69892 -55.77301 10312 ft 329 kts 113°
2026-04-23 21:33 -15.70853 -55.75082 10462 ft 345 kts 113°
2026-04-23 21:34 -15.71848 -55.72785 10868 ft 351 kts 113°
2026-04-23 21:34 -15.72855 -55.70468 11360 ft 354 kts 113°
2026-04-23 21:34 -15.73875 -55.68124 11860 ft 357 kts 113°
2026-04-23 21:34 -15.74901 -55.65765 12384 ft 360 kts 113°
2026-04-23 21:35 -15.75934 -55.63383 12883 ft 363 kts 113°
2026-04-23 21:35 -15.76972 -55.60985 13390 ft 366 kts 113°
2026-04-23 21:35 -15.78018 -55.58567 13864 ft 369 kts 113°
2026-04-23 21:35 -15.79070 -55.56130 14299 ft 371 kts 113°
2026-04-23 21:36 -15.81198 -55.51205 15158 ft 376 kts 113°
2026-04-23 21:36 -15.82270 -55.48728 15592 ft 378 kts 113°
2026-04-23 21:36 -15.83351 -55.46230 16002 ft 380 kts 114°
2026-04-23 21:37 -15.84438 -55.43718 16397 ft 383 kts 114°
2026-04-23 21:37 -15.85534 -55.41185 16789 ft 386 kts 114°
2026-04-23 21:37 -15.86637 -55.38632 17185 ft 388 kts 114°
2026-04-23 21:37 -15.87745 -55.36064 17568 ft 391 kts 114°
2026-04-23 21:38 -15.88861 -55.33477 17937 ft 394 kts 114°
2026-04-23 21:38 -15.89988 -55.30869 18284 ft 396 kts 114°
2026-04-23 21:38 -15.91118 -55.28250 18575 ft 399 kts 114°
2026-04-23 21:38 -15.92252 -55.25616 18900 ft 401 kts 113°
2026-04-23 21:39 -15.93391 -55.22963 19186 ft 403 kts 113°
2026-04-23 21:39 -15.94537 -55.20295 19484 ft 406 kts 113°
2026-04-23 21:39 -15.95694 -55.17612 19777 ft 408 kts 113°
2026-04-23 21:39 -15.96859 -55.14916 20062 ft 410 kts 113°
2026-04-23 21:40 -15.97876 -55.12144 20336 ft 412 kts 107°
2026-04-23 21:40 -15.98784 -55.09318 20612 ft 414 kts 107°
2026-04-23 21:40 -15.99696 -55.06477 20890 ft 416 kts 107°
2026-04-23 21:40 -16.00601 -55.03653 21160 ft 418 kts 107°
2026-04-23 21:41 -16.01521 -55.00782 21437 ft 420 kts 107°
2026-04-23 21:41 -16.02446 -54.97895 21713 ft 422 kts 107°
2026-04-23 21:41 -16.03378 -54.94995 21978 ft 424 kts 107°
2026-04-23 21:41 -16.04314 -54.92081 22250 ft 426 kts 107°
2026-04-23 21:42 -16.05253 -54.89156 22514 ft 428 kts 107°
2026-04-23 21:42 -16.06196 -54.86212 22775 ft 430 kts 107°
2026-04-23 21:42 -16.07141 -54.83259 23034 ft 432 kts 107°
2026-04-23 21:42 -16.08090 -54.80290 23290 ft 434 kts 106°
2026-04-23 21:43 -16.09043 -54.77304 23535 ft 436 kts 106°
2026-04-23 21:43 -16.10001 -54.74309 23743 ft 438 kts 106°
2026-04-23 21:43 -16.10965 -54.71300 23951 ft 439 kts 106°
2026-04-23 21:43 -16.11932 -54.68283 24165 ft 440 kts 106°
2026-04-23 21:44 -16.12899 -54.65259 24382 ft 442 kts 106°
2026-04-23 21:44 -16.13869 -54.62226 24601 ft 443 kts 106°
2026-04-23 21:44 -16.14838 -54.59184 24824 ft 443 kts 106°
2026-04-23 21:44 -16.15810 -54.56132 25047 ft 445 kts 106°
2026-04-23 21:45 -16.16780 -54.53078 25269 ft 446 kts 106°
2026-04-23 21:45 -16.17755 -54.50013 25498 ft 447 kts 106°
2026-04-23 21:45 -16.18735 -54.46944 25736 ft 447 kts 106°
2026-04-23 21:45 -16.19713 -54.43872 25986 ft 448 kts 106°
2026-04-23 21:46 -16.20692 -54.40781 26217 ft 449 kts 106°
2026-04-23 21:46 -16.21664 -54.37697 26449 ft 450 kts 106°
2026-04-23 21:46 -16.22644 -54.34599 26677 ft 452 kts 106°
2026-04-23 21:46 -16.23711 -54.31518 26910 ft 453 kts 108°
2026-04-23 21:47 -16.24878 -54.28468 27143 ft 455 kts 110°
2026-04-23 21:47 -16.26109 -54.25429 27370 ft 456 kts 110°
2026-04-23 21:47 -16.27360 -54.22388 27609 ft 457 kts 110°
2026-04-23 21:47 -16.28606 -54.19339 27828 ft 459 kts 110°
2026-04-23 21:48 -16.29839 -54.16266 28016 ft 460 kts 110°
2026-04-23 21:48 -16.31053 -54.13182 28221 ft 462 kts 110°
2026-04-23 21:48 -16.32259 -54.10079 28421 ft 463 kts 109°
2026-04-23 21:48 -16.33445 -54.07011 28625 ft 464 kts 109°
2026-04-23 21:49 -16.34648 -54.03896 28807 ft 464 kts 109°
2026-04-23 21:49 -16.35857 -54.00773 28986 ft 465 kts 109°
2026-04-23 21:49 -16.37071 -53.97650 29158 ft 466 kts 110°
2026-04-23 21:49 -16.38293 -53.94518 29335 ft 467 kts 110°
2026-04-23 21:50 -16.39514 -53.91387 29536 ft 467 kts 110°
2026-04-23 21:50 -16.40733 -53.88256 29775 ft 466 kts 110°
2026-04-23 21:50 -16.41947 -53.85136 30012 ft 465 kts 109°
2026-04-23 21:50 -16.43160 -53.82021 30223 ft 464 kts 110°
2026-04-23 21:51 -16.44371 -53.78906 30415 ft 464 kts 110°
2026-04-23 21:51 -16.45578 -53.75797 30598 ft 463 kts 110°
2026-04-23 21:51 -16.46789 -53.72680 30788 ft 463 kts 110°
2026-04-23 21:51 -16.47995 -53.69572 30978 ft 463 kts 110°
2026-04-23 21:52 -16.49201 -53.66462 31150 ft 463 kts 110°
2026-04-23 21:52 -16.50403 -53.63349 31326 ft 463 kts 110°
2026-04-23 21:52 -16.51605 -53.60233 31510 ft 463 kts 111°
2026-04-23 21:52 -16.52809 -53.57118 31697 ft 463 kts 111°
2026-04-23 21:53 -16.54011 -53.54003 31887 ft 463 kts 111°
2026-04-23 21:53 -16.55210 -53.50888 32075 ft 463 kts 111°
2026-04-23 21:53 -16.56411 -53.47778 32264 ft 463 kts 111°
2026-04-23 21:53 -16.57614 -53.44671 32455 ft 463 kts 111°
2026-04-23 21:54 -16.58817 -53.41558 32644 ft 462 kts 111°
2026-04-23 21:54 -16.60017 -53.38446 32835 ft 462 kts 111°
2026-04-23 21:54 -16.61213 -53.35343 33021 ft 462 kts 111°
2026-04-23 21:54 -16.62408 -53.32232 33210 ft 462 kts 111°
2026-04-23 21:55 -16.63602 -53.29126 33393 ft 462 kts 112°
2026-04-23 21:55 -16.64798 -53.26021 33576 ft 462 kts 112°
2026-04-23 21:55 -16.65996 -53.22915 33766 ft 461 kts 112°
2026-04-23 21:55 -16.67192 -53.19804 33935 ft 462 kts 112°
2026-04-23 21:56 -16.68386 -53.16697 34095 ft 462 kts 112°
2026-04-23 21:56 -16.69577 -53.13591 34259 ft 461 kts 112°
2026-04-23 21:56 -16.70645 -53.10438 34438 ft 461 kts 105°
2026-04-23 21:56 -16.71245 -53.07156 34607 ft 461 kts 97°
2026-04-23 21:57 -16.71587 -53.03832 34770 ft 461 kts 97°
2026-04-23 21:57 -16.71934 -53.00504 34912 ft 461 kts 97°
2026-04-23 21:57 -16.72281 -52.97195 34951 ft 458 kts 97°
2026-04-23 21:58 -16.72980 -52.90611 34948 ft 456 kts 97°
2026-04-23 21:58 -16.73687 -52.84041 34944 ft 456 kts 97°
2026-04-23 21:59 -16.74387 -52.77473 34948 ft 455 kts 97°
2026-04-23 21:59 -16.75080 -52.70923 34945 ft 453 kts 97°
2026-04-23 22:00 -16.76103 -52.61112 34951 ft 453 kts 97°
2026-04-23 22:00 -16.76787 -52.54569 34959 ft 454 kts 97°
2026-04-23 22:01 -16.77463 -52.48072 34963 ft 453 kts 97°
2026-04-23 22:01 -16.78149 -52.41529 34957 ft 454 kts 96°
2026-04-23 22:02 -16.78818 -52.34974 34968 ft 454 kts 96°
2026-04-23 22:02 -16.79486 -52.28415 34966 ft 455 kts 96°
2026-04-23 22:03 -16.80163 -52.21861 34974 ft 454 kts 96°
2026-04-23 22:03 -16.80841 -52.15308 34984 ft 454 kts 96°
2026-04-23 22:04 -16.81507 -52.08761 34984 ft 453 kts 96°
2026-04-23 22:04 -16.82174 -52.02218 34988 ft 453 kts 96°
2026-04-23 22:05 -16.82839 -51.95684 34997 ft 453 kts 96°
2026-04-23 22:05 -16.83502 -51.89155 34996 ft 452 kts 96°
2026-04-23 22:06 -16.84056 -51.83725 34992 ft 452 kts 96°
2026-04-23 22:06 -16.84704 -51.77196 34995 ft 452 kts 96°
2026-04-23 22:07 -16.85469 -51.69572 34995 ft 452 kts 96°
2026-04-23 22:07 -16.86015 -51.64151 34995 ft 452 kts 96°
2026-04-23 22:08 -16.86661 -51.57625 34992 ft 452 kts 96°
2026-04-23 22:08 -16.87301 -51.51106 34996 ft 452 kts 96°
2026-04-23 22:09 -16.87953 -51.44580 34988 ft 452 kts 96°
2026-04-23 22:09 -16.88602 -51.38055 34988 ft 452 kts 96°
2026-04-23 22:10 -16.89245 -51.31529 34995 ft 452 kts 96°
2026-04-23 22:10 -16.89880 -51.25008 35001 ft 452 kts 96°
2026-04-23 22:11 -16.90519 -51.18481 35002 ft 452 kts 96°
2026-04-23 22:11 -16.91158 -51.11964 35002 ft 451 kts 96°
2026-04-23 22:12 -16.91795 -51.05438 34997 ft 451 kts 96°
2026-04-23 22:12 -16.92423 -50.98917 35004 ft 451 kts 96°
2026-04-23 22:13 -16.93044 -50.92391 35004 ft 451 kts 95°
2026-04-23 22:13 -16.93662 -50.85911 35007 ft 451 kts 95°
2026-04-23 22:14 -16.94288 -50.79391 35007 ft 451 kts 95°
2026-04-23 22:14 -16.94920 -50.72871 35007 ft 451 kts 96°
2026-04-23 22:15 -16.95547 -50.66342 34998 ft 452 kts 96°
2026-04-23 22:15 -16.96159 -50.59817 35001 ft 452 kts 95°
2026-04-23 22:16 -16.96770 -50.53286 35001 ft 451 kts 95°
2026-04-23 22:16 -16.97390 -50.46766 35002 ft 451 kts 95°
2026-04-23 22:17 -16.98002 -50.40235 34999 ft 451 kts 95°
2026-04-23 22:17 -16.98610 -50.33713 34995 ft 451 kts 95°
2026-04-23 22:18 -16.99217 -50.27190 35002 ft 451 kts 95°
2026-04-23 22:18 -16.99821 -50.20658 34996 ft 451 kts 95°
2026-04-23 22:19 -17.00425 -50.14136 34997 ft 451 kts 95°
2026-04-23 22:19 -17.01027 -50.07604 34995 ft 451 kts 95°
2026-04-23 22:20 -17.01626 -50.01079 34999 ft 451 kts 95°
2026-04-23 22:20 -17.02229 -49.94550 35001 ft 451 kts 95°
2026-04-23 22:21 -17.02832 -49.88018 35002 ft 451 kts 95°
2026-04-23 22:21 -17.03277 -49.81482 35001 ft 451 kts 87°
2026-04-23 22:22 -17.01929 -49.75114 34997 ft 452 kts 67°